User: anonymous
Location: Fort Wayne
(41.1310°N, 85.1290°W)
Time: 19:00:43
(UTC-04:00)
Language:

Oscar 19 - Orbit

View from above orbital plane
View from above orbital plane
View from above satellite
View from above satellite

Ground track
Ground track

The orbit data is extracted from the following two-line orbital elements,

1 20442U 90005G   14236.87225418  .00000077  00000-0  44074-4 0   368
2 20442 098.4804 173.3724 0010689 308.2504 051.7717 14.32578675284516
Epoch (UTC): 24 August 2014 20:56:02
Eccentricity: 0.0010689
inclination: 98.4804°
perigee height: 775 km
apogee height: 791 km
right ascension of ascending node: 173.3724°
argument of perigee: 308.2504°
revolutions per day: 14.32578675
mean anomaly at epoch: 51.7717°
orbit number at epoch: 28451

The dashed part of the orbit path shows where the satellite is in the earth's shadow,  

DLR